Urgench, Uzbekistan

4:28 AM +05 on August 24, 2017 (GMT +0500)
Urgench

Weather History for UTNU - October, 2012

Change the Weather History Date:

Thursday, October 4, 2012

  Actual Average Record
Temperature  
Mean Temperature 55 °F -  
Max Temperature 69 °F - - ()
Min Temperature 41 °F - - ()
Degree Days  
Heating Degree Days 10    
Growing Degree Days 5 (Base 50)    
Moisture  
Dew Point 38 °F    
Average Humidity 54    
Maximum Humidity 87    
Minimum Humidity 27    
Precipitation  
Precipitation 0.00 in - - ()
Sea Level Pressure  
Sea Level Pressure 30.10 in    
Wind  
Wind Speed 3 mph ()    
Max Wind Speed 7 mph    
Max Gust Speed -    
Visibility 4.5 miles    
Events      
T = Trace of Precipitation, MM = Missing Value Source: Averaged Metar Reports

Daily Weather History Graph

Daily Weather History Graph

Search for Another Location

Airport or City:

Trip Planner

Search our weather history database for the weather conditions in past years. The results will help you decide how hot, cold, wet, or windy it might be!

Date:

Astronomy

Oct. 04, 2012 Rise Set
Actual Time 6:57 AM +05 6:34 PM +05
Civil Twilight 6:29 AM +05 7:01 PM +05
Nautical Twilight 5:57 AM +05 7:33 PM +05
Astronomical Twilight 5:25 AM +05 8:06 PM +05
Moon 8:47 PM +05 (10/4) 10:55 AM +05 (10/4)
Length of Visible Light 12h 31m
Length of Day
11h 36m
Waning Gibbous, 85% of the Moon is Illuminated
Oct 4
Waning Gibbous
Oct 8
Last Quarter
Oct 15
New
Oct 22
First Quarter
Oct 30
Full

Hourly Weather History & Observations

Time (+05) Temp. Dew Point Humidity Pressure Visibility Wind Dir Wind Speed Gust Speed Precip Events Conditions
12:30 AM 48.2 °F 41.0 °F 76% 30.09 in - NNE 2.2 mph - N/A   Clear
1:00 AM 48.2 °F 39.2 °F 71% 30.09 in - NNE 4.5 mph - N/A   Clear
1:30 AM 48.2 °F 39.2 °F 71% 30.09 in - NE 4.5 mph - N/A   Clear
2:00 AM 48.2 °F 37.4 °F 66% 30.09 in - ENE 2.2 mph - N/A   Clear
2:30 AM 46.4 °F 37.4 °F 71% 30.09 in - NNE 2.2 mph - N/A   Clear
3:00 AM 46.4 °F 37.4 °F 71% 30.09 in - Variable 2.2 mph - N/A   Clear
3:30 AM 46.4 °F 37.4 °F 71% 30.09 in - NE 2.2 mph - N/A   Clear
4:00 AM 46.4 °F 37.4 °F 71% 30.09 in - Calm Calm - N/A   Clear
4:30 AM 44.6 °F 37.4 °F 76% 30.09 in - NE 2.2 mph - N/A   Clear
5:30 AM 42.8 °F 39.2 °F 87% 30.09 in - ENE 2.2 mph - N/A   Clear
6:00 AM 42.8 °F 37.4 °F 81% 30.09 in - Calm Calm - N/A   Clear
7:00 AM 41.0 °F 37.4 °F 87% 30.09 in - NNE 2.2 mph - N/A   Clear
7:30 AM 41.0 °F 37.4 °F 87% 30.09 in - Calm Calm - N/A   Clear
8:00 AM 44.6 °F 37.4 °F 76% 30.09 in - North 2.2 mph - N/A   Clear
8:30 AM 50.0 °F 41.0 °F 71% 30.12 in - Calm Calm - N/A   Clear
9:00 AM 55.4 °F 39.2 °F 54% 30.12 in - Variable 2.2 mph - N/A   Clear
9:30 AM 57.2 °F 39.2 °F 51% 30.12 in - ESE 4.5 mph - N/A   Clear
10:00 AM 60.8 °F 39.2 °F 45% 30.12 in - ESE 4.5 mph - N/A   Clear
10:30 AM 62.6 °F 39.2 °F 42% 30.12 in - Variable 2.2 mph - N/A   Clear
11:00 AM 64.4 °F 37.4 °F 37% 30.12 in - East 4.5 mph - N/A   Clear
11:30 AM 64.4 °F 37.4 °F 37% 30.12 in - Variable 4.5 mph - N/A   Clear
12:00 PM 66.2 °F 35.6 °F 32% 30.12 in - North 4.5 mph - N/A   Clear
12:30 PM 66.2 °F 35.6 °F 32% 30.12 in - North 4.5 mph - N/A   Clear
1:00 PM 68.0 °F 35.6 °F 30% 30.12 in - NE 4.5 mph - N/A   Clear
1:30 PM 68.0 °F 33.8 °F 28% 30.09 in - WNW 4.5 mph - N/A   Clear
2:00 PM 68.0 °F 35.6 °F 30% 30.09 in - NNW 4.5 mph - N/A   Clear
2:30 PM 68.0 °F 35.6 °F 30% 30.09 in - North 6.7 mph - N/A   Clear
3:00 PM 69.8 °F 35.6 °F 28% 30.09 in - NNW 6.7 mph - N/A   Clear
3:30 PM 69.8 °F 35.6 °F 28% 30.09 in - NNW 6.7 mph - N/A   Clear
4:00 PM 69.8 °F 33.8 °F 27% 30.09 in - NW 4.5 mph - N/A   Clear
4:30 PM 69.8 °F 35.6 °F 28% 30.09 in - North 4.5 mph - N/A   Clear
5:00 PM 68.0 °F 35.6 °F 30% 30.06 in - North 6.7 mph - N/A   Clear
5:30 PM 68.0 °F 35.6 °F 30% 30.06 in - NNW 4.5 mph - N/A   Clear
6:00 PM 66.2 °F 39.2 °F 37% 30.06 in - NNW 4.5 mph - N/A   Clear
6:30 PM 62.6 °F 37.4 °F 39% 30.09 in - NW 4.5 mph - N/A   Clear
7:00 PM 60.8 °F 37.4 °F 42% 30.09 in - WNW 2.2 mph - N/A   Clear
7:30 PM 59.0 °F 37.4 °F 45% 30.09 in - WNW 2.2 mph - N/A   Clear
8:00 PM 55.4 °F 37.4 °F 51% 30.09 in 4.3 mi WNW 2.2 mph - N/A   Unknown
8:30 PM 55.4 °F 39.2 °F 54% 30.09 in 4.3 mi WNW 2.2 mph - N/A   Unknown
9:00 PM 53.6 °F 39.2 °F 58% 30.09 in 4.3 mi WNW 4.5 mph - N/A   Unknown
9:30 PM 51.8 °F 41.0 °F 67% 30.09 in 5.0 mi WNW 4.5 mph - N/A   Unknown
10:00 PM 50.0 °F 41.0 °F 71% 30.09 in - NW 4.5 mph - N/A   Clear
10:30 PM 51.8 °F 39.2 °F 62% 30.09 in - North 6.7 mph - N/A   Clear
11:00 PM 48.2 °F 37.4 °F 66% 30.12 in - North 6.7 mph - N/A   Clear
11:30 PM 50.0 °F 39.2 °F 66% 30.12 in - NNE 6.7 mph - N/A   Clear